Regional Weather Roundup
Issued by NWS Sioux Falls, SD

Home | Current Version | Previous Version | Text Only | Print | Product List | Glossary On
Versions: 1 2 3 4 5 6 7 8 9 10 11 12 13 14 15 16 17 18 19 20 21 22 23 24 25 26 27 28 29 30 31 32 33 34 35 36 37 38 39 40 41 42 43 44 45 46 47 48 49 50
303
ASUS43 KFSD 270302
RWRFSD

WEATHER ROUNDUP FOR SE SOUTH DAKOTA/SW MINNESOTA/NW IOWA
NATIONAL WEATHER SERVICE SIOUX FALLS SD
900 PM CST SUN FEB 26 2017

NOTE: "FAIR" INDICATES FEW OR NO CLOUDS BELOW 12,000 FEET WITH NO
SIGNIFICANT WEATHER AND OR OBSTRUCTIONS TO VISIBILITY.


SDZ038>040-050-052>070-270400-
SOUTHEAST SOUTH DAKOTA

CITY           SKY/WX    TMP DP  RH WIND       PRES   REMARKS
CHAMBERLAIN    FAIR      32  21  64 SW12      29.84S WCI  23
HURON          MOCLDY    32  20  61 SW10      29.83R WCI  24
MADISON        FAIR      28  25  86 SW16      29.86R WCI  17
MITCHELL       FAIR      32  23  69 SW10      29.87S WCI  24
SIOUX FALLS    FAIR      30  23  75 SW9       29.90R WCI  22
WINNER         FAIR      28  17  63 SW13      29.85R WCI  17
YANKTON        FAIR      28  18  64 SW6       29.92S WCI  22
$$

MNZ071-072-080-081-089-090-097-098-270400-
SOUTHWEST MINNESOTA

CITY           SKY/WX    TMP DP  RH WIND       PRES   REMARKS
FAIRMONT       FAIR      27  23  85 SW9       29.95R WCI  18
JACKSON        FAIR      28  25  86 S8        29.93R WCI  20
LUVERNE        FAIR      28  23  80 S8        29.91R WCI  20
MARSHALL       FAIR      28  21  75 S8        29.91R WCI  20
MONTEVIDEO     MOCLDY    25  19  80 SE6       29.92F WCI  18
PIPESTONE      FAIR      28  23  80 SW12      29.87R WCI  18
REDWOOD FALLS  CLOUDY    29  19  66 E5        29.92R WCI  24
TRACY          FAIR      28  24  86 S3        29.90S
WINDOM         FAIR      30  27  86 S6        29.91R WCI  24
WORTHINGTON    FAIR      28  25  88 S13       29.91R WCI  17
$$

IAZ001>003-012>014-020>022-031-032-NEZ013-014-SDZ071-270400-
NORTHWEST IOWA

CITY           SKY/WX    TMP DP  RH WIND       PRES   REMARKS
CHEROKEE       FAIR      19  17  91 S5        29.97R WCI  13
DENISON        FAIR      25  23  93 SE3       29.97R
ESTHERVILLE    FAIR      21  20  96 S7        29.94R WCI  12
LE MARS        FAIR      27  23  86 S8        29.96S WCI  18
SHELDON        FAIR      28  28 100 S10       29.92R WCI  19
SIOUX CITY     FAIR      23  19  85 SE7       29.97R WCI  15
SPENCER        FAIR      21  18  88 S6        29.95R WCI  13
STORM LAKE     FAIR      25  21  86 SW9       29.96R WCI  15
$$

ABBREVIATIONS USED IN REMARKS
   TC - TEMPERATURE IN CELSIUS
  WCI - WIND CHILL INDEX
   HX - HEAT INDEX
  VSB - VISIBILITY





USA.gov is the U.S. government's official web portal to all federal, state and local government web resources and services.